Date,TemperatureHighF,TemperatureAvgF,TemperatureLowF,DewpointHighF,DewpointAvgF,DewpointLowF,HumidityHigh,HumidityAvg,HumidityLow,PressureMaxIn,PressureMinIn,WindSpeedMaxMPH,WindSpeedAvgMPH,GustSpeedMaxMPH,PrecipitationSumIn
2013-1-1,41,29,23,35,26,21,95,89,71,30.43,30.29,1,0,2,0.00
2013-1-2,43,29,23,35,26,21,96,90,72,30.29,30.14,0,0,4,0.01
2013-1-3,46,31,21,40,28,19,96,88,68,30.14,30.05,5,0,13,0.02
2013-1-4,53,44,37,45,40,34,94,86,75,30.28,30.10,5,0,14,0.07
2013-1-5,44,39,36,43,37,34,96,94,91,30.16,30.07,1,0,4,0.08
2013-1-6,46,40,33,41,36,31,96,87,70,30.16,29.93,4,0,9,0.12
2013-1-7,48,45,41,47,42,39,95,91,86,30.14,29.81,6,2,14,0.49
2013-1-8,53,46,40,47,42,37,96,87,67,30.14,29.72,8,2,24,0.16
2013-1-9,53,39,30,42,35,28,94,84,60,29.91,29.67,10,1,19,0.37
2013-1-10,34,31,27,33,30,25,95,93,91,30.06,29.90,0,0,2,0.03
2013-1-11,36,29,22,30,26,20,95,88,64,30.27,30.06,1,0,3,0.05
2013-1-12,38,25,19,27,21,17,94,86,61,30.37,30.25,1,0,5,0.00
2013-1-13,35,24,17,26,20,15,93,84,62,30.44,30.36,1,0,4,0.01
2013-1-14,41,27,19,30,23,16,94,83,58,30.51,30.41,0,0,2,0.01
2013-1-15,44,30,24,34,26,21,95,85,62,30.63,30.51,2,0,5,0.00
2013-1-16,44,28,21,34,24,19,96,89,63,30.61,30.45,1,0,3,0.00
2013-1-17,49,29,22,37,26,20,96,89,62,30.46,30.25,1,0,3,0.01
2013-1-18,46,30,22,36,27,20,96,89,66,30.28,30.20,2,0,4,0.01
2013-1-19,33,29,25,31,27,24,95,93,91,30.32,30.27,1,0,2,0.00
2013-1-20,36,29,26,33,27,24,95,92,87,30.33,30.21,1,0,3,0.00
2013-1-21,34,29,25,33,27,23,96,93,92,30.22,30.09,1,0,3,0.00
2013-1-23,41,39,35,40,37,33,96,95,94,30.11,29.81,3,0,10,0.17
2013-1-24,45,38,29,39,34,27,96,87,67,30.17,30.00,1,0,5,0.17
2013-1-25,51,43,30,48,40,27,96,90,79,30.01,29.90,2,0,7,0.28
2013-1-26,46,37,29,39,34,27,95,88,71,30.00,29.83,4,0,10,0.04
2013-1-27,41,38,36,37,35,34,94,91,78,30.03,29.95,4,0,9,0.11
2013-1-28,40,38,37,38,36,35,95,94,92,30.06,29.96,3,1,11,0.45
2013-1-29,44,42,40,43,42,39,96,96,95,30.35,30.06,6,1,13,0.58
2013-1-30,46,44,42,45,43,41,96,96,95,30.36,30.31,2,0,6,0.44
2013-1-31,47,45,41,46,44,40,97,94,91,30.36,30.28,3,0,9,0.16
2013-2-1,52,43,38,44,40,35,96,88,71,30.36,30.29,2,0,5,0.01
2013-2-2,40,37,30,38,35,28,95,92,88,30.33,30.20,1,0,3,0.00
2013-2-3,44,37,29,43,36,27,96,94,91,30.27,30.17,0,0,1,0.01
2013-2-4,53,44,37,43,40,35,96,87,68,30.18,29.85,2,0,4,0.01
2013-2-5,51,42,35,42,38,32,95,85,65,29.93,29.81,5,1,14,0.21
2013-2-6,49,43,40,40,38,34,94,82,62,30.03,29.75,3,0,12,0.16
2013-2-7,49,39,29,38,32,25,93,78,53,30.13,29.76,8,0,17,0.08
2013-2-8,47,35,26,38,30,23,95,84,65,30.26,30.13,1,0,6,0.01
2013-2-9,44,38,34,37,34,30,94,85,77,30.28,30.21,1,0,4,0.01
2013-2-10,46,40,36,38,35,33,93,82,65,30.32,30.27,2,0,5,0.00
2013-2-11,46,41,33,41,36,30,94,84,65,30.32,30.28,2,0,5,0.03
2013-2-12,50,45,41,45,42,39,95,89,77,30.38,30.31,5,1,11,0.05
2013-2-13,47,44,41,42,40,37,92,83,73,30.47,30.31,4,1,12,0.02
2013-2-14,49,44,37,45,40,34,94,87,80,30.51,30.46,1,0,5,0.02
2013-2-15,56,44,34,44,40,32,94,87,64,30.50,30.15,1,0,4,0.01
2013-2-16,50,41,32,43,37,30,96,87,66,30.19,30.12,6,1,14,0.06
2013-2-17,45,40,37,35,33,31,83,74,59,30.21,30.08,4,1,11,0.06
2013-2-18,45,39,33,36,32,30,93,78,61,30.08,29.71,3,0,7,0.00
2013-2-19,54,38,28,37,31,26,93,79,43,29.96,29.68,3,0,9,0.00
2013-2-20,45,35,26,37,31,24,96,84,60,30.01,29.94,3,0,9,0.00
2013-2-21,41,38,34,38,35,30,93,90,86,30.07,29.97,4,1,12,0.15
2013-2-22,43,40,34,39,37,31,93,89,81,30.05,29.70,7,2,19,0.57
2013-2-23,44,39,35,36,34,30,92,81,65,30.35,29.91,6,1,13,0.09
2013-2-24,48,42,36,35,33,28,86,70,52,30.36,29.93,7,1,17,0.00
2013-2-25,48,41,37,37,35,31,91,79,52,30.27,29.86,6,2,17,0.13
2013-2-26,47,41,34,34,31,29,86,69,50,30.31,30.16,7,1,14,0.01
2013-2-27,52,44,39,45,39,32,92,82,62,30.26,30.16,3,0,14,0.12
2013-2-28,51,46,41,49,44,39,96,93,91,30.31,30.14,2,0,7,0.57
2013-3-1,58,53,49,50,48,45,94,83,69,30.36,30.27,4,1,13,0.32
2013-3-2,55,47,38,46,42,34,93,83,65,30.27,30.06,8,1,17,0.06
2013-3-3,51,39,29,35,31,24,92,74,37,30.25,30.16,4,0,12,0.05
2013-3-4,56,36,25,33,27,23,95,74,28,30.25,29.87,3,0,7,0.01
2013-3-5,48,38,29,39,33,27,92,81,59,29.87,29.67,1,0,4,0.01
2013-3-6,42,39,35,40,37,32,94,91,86,29.85,29.53,1,0,5,0.60
2013-3-7,53,42,32,42,37,29,96,82,52,30.04,29.85,2,0,6,0.45
2013-3-8,56,39,29,42,33,26,95,82,49,30.19,30.03,3,0,7,0.01
2013-3-9,59,39,28,40,31,27,97,77,33,30.47,30.19,4,0,9,0.01
2013-3-10,43,38,30,41,36,28,96,93,89,30.46,30.38,0,0,2,0.12
2013-3-11,50,45,41,46,42,39,95,90,80,30.40,30.15,1,0,3,0.11
2013-3-12,51,49,45,49,47,43,94,93,88,30.15,30.08,4,1,10,0.42
2013-3-13,53,50,47,51,48,45,96,94,93,30.19,30.07,2,0,6,0.53
2013-3-14,50,50,50,48,48,48,94,94,94,30.07,30.07,0,0,0,0.00
2013-10-1,52,50,48,47,45,44,87,84,80,30.12,30.07,0,0,0,0.01
2013-10-2,52,48,44,48,45,41,94,89,83,30.14,30.03,0,0,0,0.11
2013-10-3,54,49,41,48,45,38,95,87,76,30.42,30.14,0,0,0,0.02
2013-10-4,66,45,34,52,40,32,96,84,52,30.44,30.34,0,0,0,0.00
2013-10-5,70,50,38,53,44,36,96,84,43,30.33,30.12,0,0,0,0.00
2013-10-6,79,52,39,55,42,30,97,78,20,30.12,29.88,0,0,0,0.00
2013-10-7,57,51,48,51,48,46,96,92,78,30.03,29.90,0,0,0,0.31
2013-10-8,53,48,38,47,44,35,92,86,76,30.04,29.94,0,0,0,0.11
2013-10-9,58,43,32,47,39,30,96,86,61,30.11,29.93,0,0,0,0.01
2013-10-10,57,48,40,51,44,38,96,88,60,30.04,29.91,0,0,0,0.10
2013-10-11,57,48,38,50,44,36,96,87,69,30.11,30.04,0,0,0,0.01
2013-10-12,52,47,45,47,43,-100,95,88,82,30.17,30.04,0,0,0,0.08
2013-10-13,57,45,38,48,42,35,96,88,69,30.33,30.18,0,0,0,0.02
2013-10-14,60,41,32,45,36,30,96,84,54,30.38,30.32,0,0,0,0.01